KI5NYZ-13 Weather Reports


Display with metric or nautical units.
time (UTC)temp
F
wind
direction
speed
MPH
gust
MPH
rain 1hr
in
rain 24hr
in
rain mn
in
humidity
%
barometer
mb
20260902124223 70 186 1.0 1.0 0.00 0.36 0.00 60 1013.4
20260902121222 70 193 1.0 1.0 0.00 0.36 0.00 60 1013.4
20260902114221 71 206 1.0 1.0 0.00 0.36 0.00 58 1013.1
20260902111220 72 188 1.0 1.0 0.00 0.36 0.00 57 1013.1
20260902104219 72 189 1.0 2.0 0.00 0.36 0.00 57 1013.0
20260902101218 74 187 1.0 1.0 0.00 0.36 0.00 53 1012.7
20260902094217 74 177 2.0 2.0 0.00 0.36 0.00 52 1012.5
20260902091216 75 173 1.0 2.0 0.00 0.36 0.00 51 1012.7
20260902084215 75 174 1.0 1.0 0.00 0.36 0.00 49 1012.4
20260902081214 76 167 2.0 2.0 0.00 0.36 0.00 49 1012.3
20260902074213 76 172 1.0 1.0 0.00 0.36 0.00 48 1012.4
20260902071212 76 183 0.0 0.0 0.00 0.36 0.00 49 1012.3
20260902064211 76 172 1.0 1.0 0.00 0.36 0.00 48 1012.2
20260902061210 77 183 0.0 0.0 0.00 0.36 0.00 46 1012.0
20260902054209 78 156 0.0 0.0 0.00 0.36 0.00 44 1011.5
20260902051208 78 166 0.0 0.0 0.00 0.36 0.00 44 1011.5
20260902044207 80 146 0.0 2.0 0.00 0.36 0.36 42 1011.4
20260902041206 80 178 0.0 2.0 0.00 0.36 0.36 41 1011.3
20260902034205 80 148 0.0 2.0 0.00 0.36 0.36 41 1011.0
20260902031204 80 70 0.0 0.0 0.00 0.36 0.36 40 1010.6
20260902024203 82 186 0.0 2.0 0.00 0.36 0.36 40 1009.7
20260902021202 84 360 0.0 0.0 0.00 0.36 0.36 37 1008.8
20260902014202 87 179 0.0 3.0 0.00 0.36 0.36 34 1008.2
20260902011200 90 182 0.0 4.0 0.00 0.36 0.36 32 1007.3
20260902004159 93 176 1.0 4.0 0.00 0.37 0.36 29 1006.6
20260902001159 95 180 4.0 8.0 0.01 0.37 0.36 27 1006.1
20260901234157 96 174 1.0 6.0 0.02 0.39 0.35 26 1005.9
20260901231157 95 178 2.0 9.0 0.03 0.41 0.34 27 1006.0
20260901224155 95 186 2.0 7.0 0.04 0.42 0.33 27 1006.1
20260901221154 97 179 3.0 10.0 0.04 0.41 0.30 27 1005.9
20260901214154 96 177 3.0 8.0 0.05 0.42 0.28 27 1006.3
20260901211152 95 210 3.0 9.0 0.03 0.40 0.25 28 1007.0
20260901204151 94 164 1.0 6.0 0.03 0.39 0.23 30 1007.7
20260901201150 94 190 4.0 9.0 0.03 0.39 0.21 32 1008.3
20260901194149 94 176 2.0 2.0 0.03 0.39 0.19 31 1008.5
20260901191149 93 182 4.0 4.0 0.02 0.40 0.17 31 1009.1
20260901184147 92 176 3.0 3.0 0.03 0.40 0.15 34 1009.7
20260901181146 92 176 3.0 3.0 0.03 0.40 0.13 35 1009.9
20260901174145 90 184 3.0 3.0 0.03 0.39 0.11 39 1010.6
20260901171145 88 200 4.0 4.0 0.03 0.40 0.10 42 1011.2
20260901164143 86 189 3.0 3.0 0.04 0.42 0.08 44 1011.7
20260901161142 84 203 4.0 4.0 0.03 0.43 0.05 47 1011.9
20260901154141 83 185 3.0 3.0 0.03 0.43 0.03 49 1012.1
20260901151140 81 199 3.0 3.0 0.02 0.43 0.02 52 1012.7
20260901144139 79 184 3.0 3.0 0.00 0.41 0.00 56 1013.1
20260901141138 76 172 2.0 2.0 0.00 0.41 0.00 60 1013.7
20260901134137 73 161 0.0 0.0 0.00 0.41 0.00 64 1014.2
20260901131136 71 217 1.0 1.0 0.00 0.41 0.00 68 1014.6